Other Public Products
Issued by NWS Grand Forks, ND

Home | Current Version | Previous Version | Text Only | Print | Product List | Glossary Off
Versions: 1 2 3 4 5 6 7 8 9 10 11 12 13 14 15 16 17 18 19 20 21 22 23 24 25 26 27 28 29 30 31 32 33 34 35 36 37 38 39 40 41 42 43 44 45 46 47 48 49 50

000
FPUS83 KFGF 171810
OPUFGF
PRAIRIE TO PINES WEATHER ROUNDUP
NATIONAL WEATHER SERVICE EASTERN NORTH DAKOTA/GRAND FORKS ND
1200 PM CST SAT FEB 17 2018

 **SATELLITE DATA USED TO AUGMENT SKY COVER AT AUTOMATED STATIONS**
 *****  WEATHER ACROSS EASTERN NORTH DAKOTA  *****

CITY           SKY/WX    TMP DP  RH WIND       PRES   REMARKS
GRAND FORKS    FAIR      21   8  57 W18       29.91R WCI   6
6HR MIN TEMP:  11; 6HR MAX TEMP:  21;

GRND FORKS AFB FAIR      19   4  51 NW17      29.91R WCI   4
GRND FORKS NWS   N/A     20   9  64 NW13      29.89R WCI   7
BUXTON           N/A     20  17  87 W16         N/A  WCI   6
DEVILS LAKE    FAIR      14   6  70 W16       29.93R WCI  -2
6HR MIN TEMP:   8; 6HR MAX TEMP:  15;

FARGO          FAIR      23  15  71 NW20      29.95R WCI   8
6HR MIN TEMP:  13; 6HR MAX TEMP:  23;

WAHPETON ARPT  FAIR      28  12  50 NW18G26   29.95R WCI  16
$$

 *****  WEATHER ACROSS CENTRAL AND WESTERN NORTH DAKOTA  *****

CITY           SKY/WX    TMP DP  RH WIND       PRES   REMARKS
JAMESTOWN      FAIR      22  10  60 NW18      29.94R WCI   7
6HR MIN TEMP:  13; 6HR MAX TEMP:  22;

BISMARCK       PTSUNNY   24  12  60 W16       30.02R WCI  11
6HR MIN TEMP:  15; 6HR MAX TEMP:  24;

MINOT          FAIR      21  11  65 W18       29.93S WCI   6
6HR MIN TEMP:  11; 6HR MAX TEMP:  21;

MINOT AFB      PTSUNNY   19  12  73 W21       29.92R WCI   3
6HR MIN TEMP:   7; 6HR MAX TEMP:  21;

GARRISON         N/A     19  12  74 W16       29.96R WCI   4
6HR MIN TEMP:   8; 6HR MAX TEMP:  19;

WILLISTON      FAIR      16   7  67 W15G22    30.00S WCI   1
6HR MIN TEMP:   7; 6HR MAX TEMP:  16;

DICKINSON      FAIR      17   8  67 W22       29.96S WCI   0
6HR MIN TEMP:   9; 6HR MAX TEMP:  17; 6HR PCP: TRACE;

HETTINGER      FAIR      16   9  74 NW17      30.00F WCI   0
6HR MIN TEMP:  10; 6HR MAX TEMP:  21;

$$

 *****  OTHER OBSERVATIONS NORTHEAST NORTH DAKOTA  *****

CITY           SKY/WX    TMP DP  RH WIND       PRES   REMARKS
WALHALLA       FAIR      18   1  49 W13       29.90R WCI   4
LANGDON        FAIR      16   3  57 W16       29.86S WCI   0
CAVALIER         N/A     19   3  49 NW15G23   29.90R WCI   5
GRAFTON        FAIR      19   7  58 NW20G25   29.92R WCI   4
CANDO          FAIR      16   5  62 W16       29.92S WCI   0
FORT TOTTEN      N/A     17   3  54 W7        29.95S WCI   8
ROLLA          FAIR      16   1  53 W20G28    29.85S WCI  -1
RUGBY          FAIR      12   7  79 W15       29.92R WCI  -4
 ***** THE ABOVE OBSERVATIONS ARE NON NWS ARE NOT QUALITY
        CONTROLLED AND MAY MIS-REPORT RAIN FOR SNOW...
$$

 *****  OTHER OBSERVATIONS SOUTHEAST NORTH DAKOTA *****

CITY           SKY/WX    TMP DP  RH WIND       PRES   REMARKS
COOPERSTOWN    FAIR      18   9  68 NW21      29.94R WCI   1
VALLEY CITY    FLURRIES  19  10  68 NW20      29.96R WCI   4
OAKES            N/A     27   9  46 W17G24    29.98R WCI  14
GWINNER          N/A     27  10  50 NW16      29.96S WCI  14
SHEYENNE NWR     N/A     25  10  52 NW15      29.95S WCI  13
BUFFALO          N/A     19   9  65 E18         N/A  WCI   4
WYNDMERE       NOT AVBL
 ***** THE ABOVE OBSERVATIONS ARE NON NWS ARE NOT QUALITY
       CONTROLLED AND MAY MIS-REPORT RAIN FOR SNOW...
$$

  *****  WEATHER ACROSS NORTHERN MINNESOTA  *****

CITY           SKY/WX    TMP DP  RH WIND       PRES   REMARKS
FLAG ISLAND    FAIR      16   3  57 NW17      29.77S WCI   0
WARROAD        FAIR      16   7  67 W12       29.81R WCI   3
ROSEAU         NOT AVBL
HALLOCK        FAIR      18   7  62 NW14      29.89R WCI   4
THF RVR FALLS  FAIR      18  11  74 W15       29.87R WCI   4
6HR MIN TEMP:  11; 6HR MAX TEMP:  18; 6HR PCP: TRACE;

HALSTAD        NOT AVBL
FOSSTON        FLURRIES  18  10  73 W15       29.87R WCI   3
BAUDETTE       FAIR      17   4  56 NW13      29.78R WCI   4
6HR MIN TEMP:  11; 6HR MAX TEMP:  17;

WASKISH        CLOUDY    19  10  68 W9        29.81S WCI   9
CROOKSTON      FAIR      19  12  73 NW20      29.91R WCI   4
$$
  *****  WEATHER ACROSS CENTRAL AND WEST MINNESOTA  *****

CITY           SKY/WX    TMP DP  RH WIND       PRES   REMARKS
BEMIDJI        FLURRIES  20  12  71 W15G21    29.83R WCI   6
6HR MIN TEMP:  12; 6HR MAX TEMP:  20;

PARK RAPIDS    FAIR      22  14  71 W18       29.84R WCI   7
6HR MIN TEMP:   6; 6HR MAX TEMP:  23;

WADENA         FAIR      23  14  68 W14G20    29.87R WCI  11
DETROIT LAKES  PTSUNNY   21  14  73 NW17      29.90R WCI   7
MOORHEAD       FAIR      23  14  68 W17       29.95R WCI   9
FERGUS FALLS   FAIR      25  16  68 NW17G26   29.92R WCI  11
ELBOW LAKE     FAIR      28  15  58 NW18G24   29.92R WCI  15
6HR MIN TEMP:  14; 6HR MAX TEMP:  28;

MORRIS MN      FAIR      34  16  47 NW22G28   29.91S WCI  22
STAPLES        FAIR      25  16  68 W15       29.86S WCI  12
WHEATON        CLOUDY    30  10  43 W18G24    29.97R WCI  18
$$
  *****  WEATHER ELSEWHERE ACROSS MINNESOTA  *****

CITY           SKY/WX    TMP DP  RH WIND       PRES   REMARKS
DULUTH         FAIR      25  13  60 W20       29.76S WCI  11
6HR MIN TEMP:  14; 6HR MAX TEMP:  26;

INTRNTL FALLS  FAIR      19   7  59 W12G21    29.76R WCI   7
6HR MIN TEMP:  15; 6HR MAX TEMP:  19;

ELY            FAIR      21  10  63 W15       29.72R WCI   8
CLOQUET        FAIR      25  12  58 W13G20    29.79S WCI  13
BRAINERD       FAIR      28  14  55 W9        29.85S WCI  19
6HR MIN TEMP:  12; 6HR MAX TEMP:  28;

HIBBING        PTSUNNY   24  10  55 NW9G18    29.77R WCI  14
6HR MIN TEMP:   4; 6HR MAX TEMP:  24;

ALEXANDRIA     FAIR      30  13  49 NW17G23   29.89R WCI  18
6HR MIN TEMP:  16; 6HR MAX TEMP:  31;

SAINT CLOUD    FAIR      33  18  53 NW16      29.87S WCI  23
6HR MIN TEMP:  17; 6HR MAX TEMP:  33;

MINNEAPOLIS    CLOUDY    31  25  78 W6        29.90S
6HR MIN TEMP:  24; 6HR MAX TEMP:  31; 6HR PCP:  0.01;

$$

  *****  WEATHER ACROSS SOUTH DAKOTA  *****

CITY           SKY/WX    TMP DP  RH WIND       PRES   REMARKS
SIOUX FALLS    FAIR      31  26  82 W14       29.98R WCI  21
6HR MIN TEMP:  24; 6HR MAX TEMP:  31; 6HR PCP: TRACE;

BROOKINGS      FAIR      31  22  69 NW14      29.95R WCI  21
WATERTOWN      FAIR      30  19  63 NW12      29.94R WCI  20
6HR MIN TEMP:  14; 6HR MAX TEMP:  30;

HURON          CLOUDY    29  22  75 NW15      30.02R WCI  18
6HR MIN TEMP:  14; 6HR MAX TEMP:  29; 6HR PCP:  0.01;

SISSETON         N/A     32  10  40 NW18G28   29.94R WCI  20
ABERDEEN       FAIR      33  16  49 NW13      30.01R WCI  24
6HR MIN TEMP:  15; 6HR MAX TEMP:  33;

MITCHELL       PTSUNNY   30  26  85 NW15      30.04R WCI  19
PIERRE         FAIR      28  22  78 NW18      30.05R WCI  15
6HR MIN TEMP:  19; 6HR MAX TEMP:  28; 6HR PCP: TRACE;

MOBRIDGE       PTSUNNY   27  17  66 NW17      30.00R WCI  14
RAPID CITY     FAIR      30  23  75 N13       30.00F WCI  20
6HR MIN TEMP:  27; 6HR MAX TEMP:  31;

$$

  *****  SOME WEATHER IN NEARBY STATES *****

CITY           SKY/WX    TMP DP  RH WIND       PRES   REMARKS
GLASGOW MT     PTSUNNY   11   5  77 W3        30.01S
6HR MIN TEMP:   1; 6HR MAX TEMP:  13;

GREAT FALLS MT CLOUDY    17  11  77 E6        29.80F WCI   9
6HR MIN TEMP:   7; 6HR MAX TEMP:  17;

CHEYENNE WY    FAIR      39  10  30 W17G33    30.05S
6HR MIN TEMP:  28; 6HR MAX TEMP:  39;

SCOTTSBLUFF NE FAIR      42  15  33 NW14G23   30.04F
6HR MIN TEMP:  25; 6HR MAX TEMP:  42;

OMAHA NE       FAIR      42  26  53 N16       30.01R
6HR MIN TEMP:  28; 6HR MAX TEMP:  42; 6HR PCP: TRACE;

DES MOINES IA  CLOUDY    32  26  78 W18G25    29.96R WCI  20
6HR MIN TEMP:  27; 6HR MAX TEMP:  33; 6HR PCP:  0.02;

DAVENPORT IA   LGT SNOW  33  26  75 S14       29.95F VSB 3/4 WCI  23
6HR MIN TEMP:  21; 6HR MAX TEMP:  34;

CHICAGO IL     CLOUDY    32  23  69 SW13      29.99F WCI  22
6HR MIN TEMP:  18; 6HR MAX TEMP:  32;

EAU CLAIRE WI  LGT SNOW  25  21  85 SW7       29.88S VSB 1   WCI  17
6HR MIN TEMP:  16; 6HR MAX TEMP:  25; 6HR PCP:  0.03;

LA CROSSE WI   SNOW      25  22  88 S10       29.93F VSB 1/2 WCI  15
6HR MIN TEMP:  21; 6HR MAX TEMP:  27; 6HR PCP:  0.04;

$$

  *****  SOME NATIONAL WEATHER *****

CITY           SKY/WX    TMP DP  RH WIND       PRES   REM



USA.gov is the U.S. government's official web portal to all federal, state and local government web resources and services.